Regional Weather Roundup
Issued by NWS Northern Indiana

Home | Current Version | Previous Version | Graphics & Text | Print | Product List | Glossary On
Versions: 1 2 3 4 5 6 7 8 9 10 11 12 13 14 15 16 17 18 19 20 21 22 23 24 25 26 27 28 29 30 31 32 33 34 35 36 37 38 39 40 41 42 43 44 45 46 47 48 49 50
000
ASUS43 KIWX 112110
RWRIWX

KIWX WEATHER ROUNDUP
NATIONAL WEATHER SERVICE NORTHERN INDIANA
400 PM EST MON DEC 11 2017

NOTE: "FAIR" INDICATES FEW OR NO CLOUDS BELOW 12,000 FEET WITH NO
SIGNIFICANT WEATHER AND/OR OBSTRUCTIONS TO VISIBILITY.

* THESE STATIONS ARE NOT UNDER NWS QUALITY CONTROL. THEY ALSO MAY NOT
  REPORT WEATHER SUCH AS PRECIPITATION OR FOG.

INZ001>027-112200-
NORTHERN INDIANA

CITY           SKY/WX    TMP DP  RH WIND       PRES   REMARKS
GARY*          CLOUDY    39  25  56 SE6       29.67F
VALPARAISO     MOSUNNY   36  27  69 SE12      29.68F
MICHIGAN CITY* CLOUDY    32  27  80 SE7       29.69F WCI  26
LAPORTE*       MOSUNNY   32  26  78 SE9       29.69F WCI  24
KNOX*          CLOUDY    34  28  80 E9        29.69F WCI  26
SOUTH BEND     CLOUDY    31  26  82 SE9       29.71F WCI  23
ELKHART*       PTSUNNY   32  25  74 SE7       29.72F WCI  26
GOSHEN         CLOUDY    33  25  72 SE12      29.71F WCI  24
MONTICELLO*    CLOUDY    40  26  56 SE3       29.67S
LOGANSPORT*    CLOUDY    36  28  75 SE8       29.71S
ROCHESTER*     CLOUDY    36  28  75 SE10      29.70F
WARSAW*        CLOUDY    32  27  80 SE8       29.72F WCI  25
AUBURN*        CLOUDY    34  27  75 SE3       29.74F
FORT WAYNE     CLOUDY    35  28  75 SE12      29.74F WCI  27
HUNTINGTON*    MOSUNNY   34  26  72 SE9       29.72F WCI  27
PERU/GRISSOM   CLOUDY    36  29  75 SE10      29.69F
MARION*        MOSUNNY   37  28  69 SE9       29.71F

$$
INZ028>050-112200-
CENTRAL INDIANA

CITY           SKY/WX    TMP DP  RH WIND       PRES   REMARKS
LAFAYETTE      CLOUDY    44  28  53 S9        29.67S
KOKOMO*        MOSUNNY   37  29  72 SE12      29.70F
MUNCIE*        SUNNY     40  27  59 SE9       29.72F
INDIANAPOLIS   CLOUDY    45  28  51 S9        29.70F

$$
MIZ043>046-050>051-056>058-064>065-071>073-077>080-112200-
SOUTHWEST LOWER MICHIGAN

CITY           SKY/WX    TMP DP  RH WIND       PRES   REMARKS
BATTLE CREEK   LGT SNOW  30  24  78 S12       29.73F WCI  20
BENTON HARBOR  CLOUDY    32  23  69 SE9       29.70F WCI  24
COLDWATER*     CLOUDY    32  25  76 SE9       29.74F WCI  24
HILLSDALE*     CLOUDY    30  23  74 SE8       29.74F WCI  23
HOLLAND        CLOUDY    32  23  69 SE8       29.71F WCI  25
GRAND RAPIDS   CLOUDY    30  25  81 SE8       29.72F WCI  22
KALAMAZOO      SNOW      30  26  85 SE6       29.73F VSB 1/4 WCI  24
STURGIS*       CLOUDY    32  25  76 SE6       29.72F WCI  26
THREE RIVERS*  CLOUDY    32  25  73 SE7       29.73F WCI  26

$$
OHZ001>008-015>018-024>025-112200-
NORTHWEST OHIO

CITY           SKY/WX    TMP DP  RH WIND       PRES   REMARKS
WAUSEON*       FAIR      32  28  86 S9        29.78F WCI  24
DEFIANCE       CLOUDY    33  24  69 SE7       29.78F WCI  27
FINDLAY        PTCLDY    35  22  58 S13       29.80F WCI  26
TOLEDO EXPRESS CLOUDY    32  26  78 S6        29.80F WCI  26
TOLEDO METCALF CLOUDY    34  23  64 S12       29.82F WCI  25
LIMA           CLOUDY    34  26  72 S13       29.78F WCI  25

$$
AND FOR LAKE MICHIGAN COASTAL AND OPEN LAKE BUOY OBSERVATIONS

STATION/POSITION TEMP    WIND        PRES    VSBY  WAVE
                 AIR SEA DIR/SP/G                  HT/PER
                 (F)     (DEG/KT/KT) (MB)    (MI)  (FT/S)
CALUMET HARBOR    38     170/  5/  7 1004.2F
MICHIGAN CITY     33      90/  8/ 11   N/A
BURNS HARBOR      36     150/  6/ 13 1005.4F
SAINT JOSEPH      33      CALM  /  6 1006.4

$$
&&




USA.gov is the U.S. government's official web portal to all federal, state and local government web resources and services.